Location: Unspecified
(52.1384°N, 8.6525°W)
Time: 12:18:49
(UTC+00:00)

X-37B - Visible Passes

Search period start: 28 October 2020 00:00
Search period end: 07 November 2020 00:00
Orbit: 382 x 392 km, 45.0° (Epoch: 15 October)

Date Brightness Start Highest point End Pass type
(mag) Time Alt. Az. Time Alt. Az. Time Alt. Az.
02 Nov 3.6 06:36:26 10° S 06:37:43 12° SSE 06:39:00 10° SE visible
04 Nov 3.3 06:14:53 10° SSW 06:16:55 16° SSE 06:18:57 10° ESE visible
05 Nov 3.4 05:17:59 11° SSE 05:18:37 12° SSE 05:19:53 10° SE visible
05 Nov 2.8 06:51:59 10° SW 06:54:31 22° S 06:57:05 10° ESE visible
06 Nov 2.8 05:54:33 14° SSW 05:56:10 19° SSE 05:58:31 10° ESE visible
